Location: Sternwarte ZA, Rosenfeld-Brittheim
(48.2889°N, 8.6789°E)
Time: 09:56:44
(UTC+01:00)

Tiangong 2 - Visible Passes

Search period start: 19 January 2019 00:00
Search period end: 29 January 2019 00:00
Orbit: 380 x 392 km, 42.8° (Epoch: 19 January)

Date Brightness Start Highest point End Pass type
(mag) Time Alt. Az. Time Alt. Az. Time Alt. Az.
19 Jan 4.3 05:16:49 12° SE 05:16:49 12° SE 05:17:15 10° ESE visible
19 Jan 2.8 06:49:04 11° SW 06:51:41 28° S 06:54:31 10° ESE visible
20 Jan 3.0 05:52:56 24° SSE 05:52:56 24° SSE 05:55:30 10° ESE visible
20 Jan 2.7 07:26:20 10° WSW 07:29:11 29° S 07:32:01 10° ESE visible
21 Jan 2.6 06:28:59 22° SW 06:30:18 30° S 06:33:10 10° ESE visible
22 Jan 3.5 05:32:44 21° SE 05:32:44 21° SE 05:34:14 10° ESE visible
22 Jan 2.8 07:05:02 10° WSW 07:07:46 26° S 07:10:30 10° SE visible
23 Jan 2.4 06:08:42 29° SSW 06:08:54 29° S 06:11:44 10° ESE visible
24 Jan 4.3 05:12:24 13° ESE 05:12:24 13° ESE 05:12:51 10° ESE visible
24 Jan 3.0 06:44:39 14° SW 06:46:18 21° SSW 06:48:48 10° SE visible
25 Jan 3.1 05:48:22 22° SSE 05:48:22 22° SSE 05:50:09 10° SE visible
25 Jan 3.7 07:22:41 10° SW 07:23:34 11° SSW 07:24:26 10° SSW visible
26 Jan 3.2 06:24:21 15° SSW 06:24:47 15° SSW 06:26:46 10° SSE visible
27 Jan 4.1 05:28:07 12° SSE 05:28:07 12° SSE 05:28:24 10° SSE visible
